Location: Gradaro
(45.0833°N, 10.8833°E)
Time: 05:09:41
(UTC+00:00)

Lacrosse 5 - Pass Details

Date: 29 November 2020
Orbit: 713 x 726 km, 57.0° (Epoch: 23 January)

Event Time Altitude Azimuth Distance (km) Brightness Sun altitude
Exits shadow 02:52:51 20° 89° (E) 1,620 4.2 -38.1°
Drops below altitude 10° 02:54:57 10° 69° (ENE) 2,193 5.1 -37.8°
Sets 02:57:39 0° 57° (ENE) 3,117 5.9 -37.3°
